Regional Weather Roundup
Issued by NWS

Home | Current Version | Previous Version | Text Only | Print | Product List | Glossary On
Versions: 1 2 3 4 5 6 7 8 9 10 11 12 13 14 15 16 17 18 19 20 21 22 23 24 25 26 27 28 29 30 31 32 33 34 35 36 37 38 39 40 41 42 43 44 45 46 47 48 49 50
000
ASUS43 KLSX 020007
RWRMO

WEATHER SUMMARY FOR MISSOURI
NATIONAL WEATHER SERVICE SPRINGFIELD MO
700 PM CDT WED APR 01 2015

NOTE: "FAIR" INDICATES FEW OR NO CLOUDS BELOW 12,000 FEET WITH NO
       SIGNIFICANT WEATHER AND/OR OBSTRUCTIONS TO VISIBILITY.
       CURRENT SKY AND/OR WEATHER CONDITIONS ARE NOT AVAILABLE FOR
       CHILLICOTHE AND FARMINGTON.

MOZ001>031-035>038-043-044-053-054-020100-
...NORTHERN AND WESTERN MISSOURI...

CITY           SKY/WX    TMP DP  RH WIND       PRES   REMARKS
KANSAS CTY INT PTCLDY    69  51  52 SE20G29   29.72F
6HR MIN TEMP:  69; 6HR MAX TEMP:  80;

KANSAS C DTWN  CLEAR     70  54  56 S13G26    29.72F
6HR MIN TEMP:  70; 6HR MAX TEMP:  82; 6HR PCP: TRACE;

LEE`S SUMMIT   PTCLDY    67  56  67 S10G22    29.75F
6HR MIN TEMP:  67; 6HR MAX TEMP:  79; 6HR PCP: TRACE;

ST JOSEPH      CLEAR     72  55  55 S22G35    29.69R
6HR MIN TEMP:  72; 6HR MAX TEMP:  82;

CHILLICOTHE      N/A     71  55  56 S15G30    29.76F
6HR MIN TEMP:  71; 6HR MAX TEMP:  80;

KIRKSVILLE     MOCLDY    71  47  42 S15G22    29.78F
6HR MIN TEMP:  71; 6HR MAX TEMP:  79; 6HR PCP: TRACE;


$$
MOZ066>068-077>081-088>096-101>105-020100-
...SOUTHWEST MISSOURI...

CITY           SKY/WX    TMP DP  RH WIND       PRES   REMARKS
SPRINGFIELD    MOCLDY    65  61  87 SE16      29.80F
6HR MIN TEMP:  60; 6HR MAX TEMP:  65; 6HR PCP:  0.46;

JOPLIN         CLEAR     70  63  78 VRB3      29.76F
6HR MIN TEMP:  60; 6HR MAX TEMP:  71;


$$
MOZ032>034-039>042-045>050-055>058-069>072-020100-
...CENTRAL MISSOURI...

CITY           SKY/WX    TMP DP  RH WIND       PRES   REMARKS
COLUMBIA       LGT RAIN  59  57  93 SE13      29.85F
6HR MIN TEMP:  59; 6HR MAX TEMP:  78; 6HR PCP:  0.08;

JEFFERSON CITY LGT RAIN  60  57  89 E7        29.84F FOG
6HR MIN TEMP:  60; 6HR MAX TEMP:  77; 6HR PCP:  0.33;

ROLLA          CLOUDY    59  53  80 SW6       29.86F
6HR MIN TEMP:  60; 6HR MAX TEMP:  76; 6HR PCP:  0.08;

SEDALIA        CLOUDY    61  58  90 SE9       29.80F
6HR MIN TEMP:  60; 6HR MAX TEMP:  80; 6HR PCP:  0.18;

WHITEMAN AFB   MOCLDY    63  55  77 S12G20    29.78F
WARRENSBURG    CLOUDY    63  54  72 SE17G23   29.77F
OSAGE BEACH    CLOUDY    59  54  82 SE10G16   29.82F

$$
MOZ051-052-059>065-020100-
...EAST CENTRAL MISSOURI...

CITY           SKY/WX    TMP DP  RH WIND       PRES   REMARKS
ST LOUIS INTL  CLOUDY    73  36  25 S17G24    29.88F
6HR MIN TEMP:  73; 6HR MAX TEMP:  78;

SPIRIT OF STL  CLOUDY    73  38  27 S9        29.86F
6HR MIN TEMP:  73; 6HR MAX TEMP:  78;

ST CHARLES     CLOUDY    71  38  29 S16       29.87F
6HR MIN TEMP:  70; 6HR MAX TEMP:  77;


$$
MOZ072>076-082>087-097>100-106>115-020100-
...SOUTH CENTRAL AND SOUTHEAST MISSOURI...

CITY           SKY/WX    TMP DP  RH WIND       PRES   REMARKS
CAPE GIRARDEAU LGT RAIN  67  48  50 S9        29.95S
6HR MIN TEMP:  67; 6HR MAX TEMP:  76; 6HR PCP: TRACE;

FARMINGTON     CLOUDY    64  45  48 S12       29.95F
6HR MIN TEMP:  64; 6HR MAX TEMP:  75;

POPLAR BLUFF   CLOUDY    65  55  70 E6        29.92S
6HR MIN TEMP:  62; 6HR MAX TEMP:  72; 6HR PCP:  0.04;

WEST PLAINS    MOCLDY    65  57  75 SE9       29.90F
6HR MIN TEMP:  65; 6HR MAX TEMP:  67; 6HR PCP: TRACE;


$$



USA.gov is the U.S. government's official web portal to all federal, state and local government web resources and services.